DW9987 Weather Reports


Display with metric or nautical units.
time (UTC)temp
F
wind
direction
speed
MPH
gust
MPH
rain 1hr
in
rain 24hr
in
rain mn
in
humidity
%
barometer
mb
20260903151517 85 277 0.0 3.0 0.00 0.00 0.00 72 1012.7
20260903150021 85 195 0.0 7.0 0.00 0.00 0.00 73 1012.8
20260903144515 85 235 0.0 4.0 0.00 0.00 0.00 72 1012.8
20260903143012 84 144 0.0 3.0 0.00 0.00 0.00 74 1012.7
20260903141511 83 256 0.0 4.0 0.00 0.00 0.00 74 1012.8
20260903140007 82 229 1.0 6.0 0.00 0.00 0.00 76 1012.6
20260903134502 81 184 1.0 5.0 0.00 0.00 0.00 79 1012.6
20260903133002 80 205 0.0 7.0 0.00 0.00 0.00 80 1012.7
20260903131601 80 178 1.0 5.0 0.00 0.00 0.00 79 1012.7
20260903130059 79 223 0.0 5.0 0.00 0.00 0.00 81 1012.9
20260903124605 77 213 1.0 3.0 0.00 0.00 0.00 84 1012.9
20260903123058 76 188 1.0 4.0 0.00 0.00 0.00 86 1013.0
20260903121558 76 205 0.0 3.0 0.00 0.00 0.00 85 1013.0
20260903120104 78 199 0.0 1.0 0.00 0.00 0.00 83 1012.9
20260903114559 78 199 0.0 2.0 0.00 0.00 0.00 80 1012.8
20260903113056 79 219 0.0 2.0 0.00 0.00 0.00 80 1012.7
20260903111553 79 222 0.0 5.0 0.00 0.00 0.00 79 1012.6
20260903110056 79 237 0.0 5.0 0.00 0.00 0.00 80 1012.5
20260903104557 78 229 1.0 7.0 0.00 0.00 0.00 80 1012.6
20260903103052 78 266 1.0 5.0 0.00 0.00 0.00 81 1012.5
20260903101601 78 202 0.0 5.0 0.00 0.00 0.00 81 1012.5
20260903100049 78 200 1.0 3.0 0.00 0.00 0.00 82 1012.5
20260903094548 77 211 0.0 4.0 0.00 0.00 0.00 84 1012.6
20260903093104 77 192 0.0 5.0 0.00 0.00 0.00 85 1012.6
20260903091547 76 194 1.0 5.0 0.00 0.00 0.00 86 1012.5
20260903090048 76 202 1.0 3.0 0.00 0.00 0.00 87 1012.3
20260903084545 76 200 0.0 3.0 0.00 0.00 0.00 89 1012.3
20260903083044 75 242 0.0 2.0 0.00 0.00 0.00 92 1012.3
20260903081544 74 258 0.0 1.0 0.00 0.00 0.00 93 1012.4
20260903080043 74 259 0.0 0.0 0.00 0.00 0.00 93 1012.4
20260903074542 74 259 0.0 0.0 0.00 0.00 0.00 92 1012.3
20260903073041 75 259 0.0 0.0 0.00 0.00 0.00 92 1012.3
20260903071540 75 259 0.0 0.0 0.00 0.00 0.00 92 1012.3
20260903070038 75 259 0.0 0.0 0.00 0.00 0.00 91 1012.2
20260903064539 75 259 0.0 0.0 0.00 0.00 0.00 91 1012.3
20260903063105 76 259 0.0 0.0 0.00 0.00 0.00 90 1012.4
20260903061534 76 259 0.0 0.0 0.00 0.00 0.00 90 1012.4
20260903060031 77 259 0.0 0.0 0.00 0.00 0.00 89 1012.4
20260903054529 77 259 0.0 0.0 0.00 0.00 0.00 88 1012.5
20260903053026 78 259 0.0 0.0 0.00 0.00 0.00 87 1012.3
20260903051524 79 259 0.0 0.0 0.00 0.00 0.00 85 1012.4
20260903050019 80 259 0.0 0.0 0.00 0.00 0.00 83 1012.2
20260903044519 81 259 0.0 0.0 0.00 0.00 0.00 81 1012.1
20260903043018 83 259 0.0 0.0 0.00 0.00 0.00 77 1012.2
20260903041522 83 259 0.0 2.0 0.00 0.00 0.00 75 1012.2
20260903040017 84 269 0.0 3.0 0.00 0.00 0.00 74 1012.1
20260903034526 84 215 0.0 3.0 0.00 0.00 0.00 73 1012.1
20260903033118 84 195 0.0 3.0 0.00 0.00 0.00 73 1012.0
20260903031518 84 184 1.0 4.0 0.00 0.00 0.00 74 1011.9
20260903030016 84 201 1.0 4.0 0.00 0.00 0.00 75 1011.9
20260903024514 84 199 1.0 5.0 0.00 0.00 0.00 76 1011.9
20260903023013 84 207 1.0 6.0 0.00 0.00 0.00 76 1012.0
20260903021518 84 186 3.0 5.0 0.00 0.00 0.00 77 1011.8
20260903020013 84 184 2.0 7.0 0.00 0.00 0.00 78 1011.8
20260903014512 84 200 2.0 5.0 0.00 0.00 0.00 79 1011.7
20260903013014 85 216 1.0 4.0 0.00 0.00 0.00 78 1011.6
20260903011512 85 206 2.0 5.0 0.00 0.00 0.00 78 1011.3
20260903010011 85 200 2.0 5.0 0.00 0.00 0.00 78 1011.2
20260903004512 85 194 0.0 3.0 0.00 0.00 0.00 77 1011.3
20260903003010 86 228 0.0 2.0 0.00 0.00 0.00 76 1011.3
20260903001509 87 196 0.0 2.0 0.00 0.00 0.00 74 1011.3
20260903000016 88 209 0.0 2.0 0.00 0.00 0.00 72 1011.4
20260902234515 89 201 1.0 4.0 0.00 0.00 0.00 71 1011.4
20260902233007 89 192 2.0 5.0 0.00 0.00 0.00 70 1011.4
20260902231518 90 190 1.0 5.0 0.00 0.00 0.00 69 1011.4
20260902230005 91 178 3.0 6.0 0.00 0.00 0.00 68 1011.5
20260902224505 91 180 1.0 5.0 0.00 0.00 0.00 67 1011.6
20260902223004 92 220 1.0 7.0 0.00 0.00 0.00 65 1011.6
20260902221503 92 176 2.0 5.0 0.00 0.00 0.00 64 1011.8
20260902220002 93 205 1.0 5.0 0.00 0.00 0.00 63 1011.6
20260902214501 93 180 2.0 7.0 0.00 0.00 0.00 60 1011.8
20260902213101 93 194 3.0 8.0 0.00 0.00 0.00 60 1011.8
20260902211559 95 217 3.0 9.0 0.00 0.00 0.00 58 1011.9
20260902210058 94 210 0.0 7.0 0.00 0.00 0.00 58 1011.9
20260902204557 94 186 3.0 10.0 0.00 0.00 0.00 57 1011.9
20260902203056 94 202 5.0 12.0 0.00 0.00 0.00 57 1012.0
20260902201555 95 238 1.0 7.0 0.00 0.00 0.00 56 1012.0
20260902200054 95 198 1.0 11.0 0.00 0.00 0.00 57 1012.3
20260902194557 94 165 1.0 7.0 0.00 0.00 0.00 57 1012.3
20260902193049 94 273 2.0 8.0 0.00 0.00 0.00 56 1012.4
20260902191546 94 360 1.0 5.0 0.00 0.00 0.00 57 1012.5
20260902190043 94 271 0.0 7.0 0.00 0.00 0.00 59 1012.5
20260902184552 93 236 2.0 11.0 0.00 0.00 0.00 56 1012.6
20260902183038 93 193 1.0 6.0 0.00 0.00 0.00 60 1012.8
20260902181542 93 180 1.0 5.0 0.00 0.00 0.00 62 1012.8
20260902180035 92 213 1.0 8.0 0.00 0.00 0.00 62 1013.0
20260902174531 91 213 1.0 9.0 0.00 0.00 0.00 63 1013.0
20260902173029 91 199 1.0 7.0 0.00 0.00 0.00 64 1013.0
20260902171528 90 237 0.0 7.0 0.00 0.00 0.00 67 1013.2
20260902170023 89 225 0.0 8.0 0.00 0.00 0.00 67 1013.2
20260902164525 88 194 2.0 7.0 0.00 0.00 0.00 67 1013.2
20260902163020 88 209 1.0 6.0 0.00 0.00 0.00 67 1013.4
20260902161521 87 150 0.0 3.0 0.00 0.00 0.00 69 1013.6
20260902160011 87 349 1.0 5.0 0.00 0.00 0.00 69 1013.8
20260902154520 86 215 0.0 3.0 0.00 0.00 0.00 71 1013.8